| time (UTC) | temp C | wind direction | speed KPH | gust KPH | rain 1hr cm | rain 24hr cm | rain mn cm | humidity % | barometer mb |
| 20260504140917 | 15 | 236 | 0.0 | 0.0 | 0.00 | 0.00 | 0.00 | ||
| 20260504080949 | 9 | 179 | 0.0 | 0.0 | 0.00 | 0.00 | 0.00 | ||
| 20260504045504 | 8 | 179 | 0.0 | 0.0 | 0.00 | 0.03 | 0.00 | ||
| 20260504044005 | 8 | 179 | 0.0 | 0.0 | 0.00 | 0.03 | 0.00 | ||
| 20260504042506 | 10 | 179 | 0.0 | 0.0 | 0.00 | 0.03 | 0.00 | ||
| 20260504041007 | 10 | 179 | 0.0 | 0.0 | 0.00 | 0.03 | 0.00 | ||
| 20260504035508 | 10 | 179 | 0.0 | 0.0 | 0.00 | 0.03 | 0.00 | ||
| 20260504034010 | 10 | 179 | 0.0 | 0.0 | 0.00 | 0.03 | 0.00 | ||
| 20260504032511 | 10 | 329 | 0.0 | 0.0 | 0.00 | 0.03 | 0.00 | ||
| 20260504031012 | 10 | 329 | 0.0 | 0.0 | 0.00 | 0.03 | 0.00 | ||
| 20260504025513 | 10 | 329 | 0.0 | 0.0 | 0.00 | 0.03 | 0.00 | ||
| 20260504024014 | 11 | 329 | 0.0 | 0.0 | 0.00 | 0.03 | 0.00 | ||
| 20260504022515 | 12 | 329 | 0.0 | 0.0 | 0.00 | 0.03 | 0.00 | ||
| 20260504021016 | 12 | 293 | 4.8 | 0.0 | 0.00 | 0.03 | 0.00 | ||
| 20260504015517 | 12 | 357 | 1.6 | 9.7 | 0.00 | 0.03 | 0.00 | ||
| 20260504014018 | 13 | 259 | 14.5 | 12.9 | 0.00 | 0.03 | 0.00 | ||
| 20260504012518 | 16 | 284 | 8.0 | 8.0 | 0.00 | 0.03 | 0.00 | ||
| 20260504011019 | 17 | 316 | 8.0 | 9.7 | 0.00 | 0.03 | 0.00 | ||
| 20260504005520 | 17 | 335 | 11.3 | 9.7 | 0.00 | 0.03 | 0.00 | ||
| 20260504004020 | 19 | 339 | 11.3 | 11.3 | 0.00 | 0.03 | 0.00 | ||
| 20260504002521 | 17 | 314 | 8.0 | 12.9 | 0.00 | 0.03 | 0.00 | ||
| 20260504001022 | 18 | 11 | 8.0 | 6.4 | 0.00 | 0.03 | 0.00 | ||
| 20260503235523 | 18 | 315 | 6.4 | 12.9 | 0.00 | 0.03 | 0.00 | ||
| 20260503234023 | 18 | 305 | 12.9 | 9.7 | 0.00 | 0.03 | 0.00 | ||
| 20260503232524 | 21 | 329 | 9.7 | 14.5 | 0.00 | 0.03 | 0.00 | ||
| 20260503231025 | 21 | 359 | 11.3 | 8.0 | 0.00 | 0.03 | 0.00 | ||
| 20260503225525 | 21 | 322 | 11.3 | 16.1 | 0.00 | 0.03 | 0.00 | ||
| 20260503224026 | 22 | 347 | 11.3 | 12.9 | 0.00 | 0.03 | 0.00 | ||
| 20260503222527 | 21 | 342 | 8.0 | 19.3 | 0.00 | 0.03 | 0.00 | ||
| 20260503221027 | 21 | 51 | 14.5 | 8.0 | 0.00 | 0.03 | 0.00 | ||
| 20260503215528 | 21 | 4 | 9.7 | 9.7 | 0.00 | 0.03 | 0.00 | ||
| 20260503214029 | 21 | 332 | 12.9 | 9.7 | 0.00 | 0.03 | 0.00 | ||
| 20260503212529 | 21 | 308 | 11.3 | 9.7 | 0.00 | 0.03 | 0.00 | ||
| 20260503211030 | 21 | 359 | 12.9 | 11.3 | 0.00 | 0.03 | 0.00 | ||
| 20260503204032 | 20 | 359 | 11.3 | 11.3 | 0.00 | 0.03 | 0.00 | ||
| 20260503201033 | 20 | 350 | 4.8 | 9.7 | 0.00 | 0.03 | 0.00 | ||
| 20260503195534 | 19 | 291 | 9.7 | 14.5 | 0.00 | 0.03 | 0.00 | ||
| 20260503194035 | 19 | 21 | 6.4 | 4.8 | 0.00 | 0.03 | 0.00 | ||
| 20260503192536 | 18 | 335 | 4.8 | 4.8 | 0.00 | 0.03 | 0.00 | ||
| 20260503191037 | 18 | 323 | 6.4 | 6.4 | 0.00 | 0.03 | 0.00 | ||
| 20260503185537 | 17 | 3 | 4.8 | 3.2 | 0.00 | 0.03 | 0.00 | ||
| 20260503184039 | 17 | 347 | 8.0 | 3.2 | 0.00 | 0.03 | 0.00 | ||
| 20260503172545 | 15 | 352 | 6.4 | 9.7 | 0.00 | 0.03 | 0.00 |